Location: Unspecified
(42.2936°N, 3.1641°W)
Time: 14:14:16
(UTC+02:00)

X-37B - Pass Details

Date: 14 March 2021
Orbit: 380 x 394 km, 45.0° (Epoch: 07 April)

Event Time Altitude Azimuth Distance (km) Brightness Sun altitude
Rises 20:30:12 0° 254° (WSW) 2,264 5.7 -14.1°
Reaches altitude 10° 20:32:16 10° 256° (WSW) 1,414 4.5 -14.5°
Maximum altitude 20:35:27 80° 344° (NNW) 400 0.6 -15.0°
Enters shadow 20:36:47 32° 67° (ENE) 693 1.4 -15.3°
